Forside
METAR-TAF:

METAR-TAF

Lufthavne :

Menominee-Marinette Twin County Airport

Menominee, Michigan, USA

Breddekreds: 45-08N, længdekreds: 087-38W, højde: 191 m

Aktuelle vejr

Denne rapport blev lavet for 49 minutter siden, kl. 16:56 UTC
Vind 4 kt fra varierende retninger
Temperatur 26°C
Fugtighed 61%
Tryk 1018 hPa
Sigt: 16.1 km
skyfri

METAR: KMNM 031656Z AUTO VRB04KT 10SM CLR 26/18 A3005 RMK AO2 SLP172 T02560178 $

Tid: 13:45 (17:45 UTC)


TAF: fraværende

Vejrobservationer og prognoser fra mere end 4000 lufthavne (METAR og TAF).

De gule og røde prikker repræsenterer de meteorologiske stationer.

Flyt musen over at se navnet på stationen.

Så klik over at se vejr observationer og prognoser.

At skifte det kort: Klik på de grønne knapper med et sort kors for at zoome ind; på den grønne knap med en bindestreg for at zoome ud; eller på de grønne pile for tilstødende kort.


METAR-TAF: